Location: Huntsville
(41.2590°N, 111.7678°W)
Time: 20:11:35
(UTC+00:00)

ISS - Pass Details

Date: 05 December 2021
Orbit: 413 x 422 km, 51.6° (Epoch: 25 January)

Event Time Altitude Azimuth Distance (km) Brightness Sun altitude
Rises 02:09:39 0° 304° (NW) 2,382 0.8 -24.0°
Reaches altitude 10° 02:11:46 10° 303° (WNW) 1,512 -0.3 -24.4°
Enters shadow 02:13:38 30° 298° (WNW) 780 -2.0 -24.8°
